EW4538 Weather Reports


time (UTC)temp
F
wind
direction
speed
knots
gust
knots
rain 1hr
in
rain 24hr
in
rain mn
in
humidity
%
barometer
mb
20220927022307 78 12 7.8 14.8 0.00 0.00 0.00 29 1020.5
20220927021807 78 25 7.0 13.0 0.00 0.00 0.00 28 1020.4
20220927021306 78 22 7.0 14.8 0.00 0.00 0.00 28 1020.3
20220927020807 78 29 8.7 14.8 0.00 0.00 0.00 28 1020.2
20220927020307 78 8 7.0 14.8 0.00 0.00 0.00 28 1020.1
20220927015807 79 7 6.1 13.0 0.00 0.00 0.00 28 1020.1
20220927015307 79 25 8.7 13.0 0.00 0.00 0.00 28 1020.1
20220927014306 79 17 5.2 12.2 0.00 0.00 0.00 28 1019.9
20220927012306 81 4 6.1 14.8 0.00 0.00 0.00 26 1019.6
20220927011807 81 14 5.2 14.8 0.00 0.00 0.00 26 1019.5
20220927011306 81 7 7.8 13.0 0.00 0.00 0.00 26 1019.4
20220927010307 81 22 8.7 14.8 0.00 0.00 0.00 26 1019.2
20220927005806 82 8 5.2 11.3 0.00 0.00 0.00 26 1019.1
20220927005307 82 5 5.2 11.3 0.00 0.00 0.00 26 1019.0
20220927004306 83 3 4.3 13.0 0.00 0.00 0.00 25 1018.9
20220927003307 84 31 4.3 8.7 0.00 0.00 0.00 24 1018.8
20220927002806 84 38 5.2 7.0 0.00 0.00 0.00 24 1018.7
20220927002307 85 10 3.5 5.2 0.00 0.00 0.00 24 1018.6
20220927001307 86 14 3.5 11.3 0.00 0.00 0.00 23 1018.5
20220927000807 86 24 4.3 11.3 0.00 0.00 0.00 22 1018.5
20220926235807 87 21 3.5 12.2 0.00 0.00 0.00 22 1018.4
20220926234806 88 7 6.1 12.2 0.00 0.00 0.00 21 1018.2
20220926234307 88 32 4.3 12.2 0.00 0.00 0.00 21 1018.1
20220926233807 88 5 5.2 13.0 0.00 0.00 0.00 20 1018.1
20220926233307 89 357 7.8 13.0 0.00 0.00 0.00 20 1018.1
20220926232807 89 356 7.8 13.0 0.00 0.00 0.00 20 1018.0
20220926231807 89 353 7.0 15.6 0.00 0.00 0.00 20 1017.9
20220926231306 90 0 8.7 17.4 0.00 0.00 0.00 20 1017.9
20220926230806 90 13 10.4 17.4 0.00 0.00 0.00 19 1017.9
20220926225807 91 350 6.1 11.3 0.00 0.00 0.00 20 1017.9
20220926225306 91 8 4.3 14.8 0.00 0.00 0.00 20 1017.8
20220926224807 90 354 8.7 19.1 0.00 0.00 0.00 20 1017.9
20220926224306 91 19 11.3 19.1 0.00 0.00 0.00 19 1017.8
20220926223807 91 42 8.7 13.0 0.00 0.00 0.00 19 1017.9
20220926223306 91 6 8.7 15.6 0.00 0.00 0.00 19 1017.8
20220926222807 92 346 8.7 15.6 0.00 0.00 0.00 18 1017.8
20220926222307 92 8 6.1 13.0 0.00 0.00 0.00 19 1017.7
20220926221307 92 358 7.8 14.8 0.00 0.00 0.00 19 1017.8
20220926220306 92 11 6.1 18.2 0.00 0.00 0.00 18 1017.9
20220926215307 92 7 6.1 15.6 0.00 0.00 0.00 19 1017.8
20220926214806 92 7 11.3 15.6 0.00 0.00 0.00 19 1017.9
20220926213307 92 348 13.0 19.1 0.00 0.00 0.00 19 1017.9
20220926212307 92 9 10.4 20.9 0.00 0.00 0.00 19 1018.0
20220926211307 92 327 13.9 18.2 0.00 0.00 0.00 18 1018.0
20220926210806 92 9 7.8 17.4 0.00 0.00 0.00 19 1018.0
20220926205806 92 4 7.8 18.2 0.00 0.00 0.00 19 1018.1
20220926205307 92 20 7.8 18.2 0.00 0.00 0.00 20 1018.2
20220926204807 92 344 11.3 19.1 0.00 0.00 0.00 19 1018.0
20220926203307 93 358 6.1 18.2 0.00 0.00 0.00 20 1018.3
20220926202806 92 351 4.3 19.1 0.00 0.00 0.00 20 1018.3
20220926202306 92 31 11.3 19.1 0.00 0.00 0.00 19 1018.5
20220926201807 92 334 7.8 14.8 0.00 0.00 0.00 19 1018.5
20220926200806 92 343 7.0 13.0 0.00 0.00 0.00 19 1018.6
20220926200306 92 349 6.1 17.4 0.00 0.00 0.00 19 1018.7
20220926195807 92 333 6.1 17.4 0.00 0.00 0.00 20 1018.8
20220926194806 91 356 7.8 17.4 0.00 0.00 0.00 20 1019.0
20220926193806 92 14 6.1 15.6 0.00 0.00 0.00 20 1019.1
20220926192806 91 334 4.3 13.0 0.00 0.00 0.00 20 1019.3
20220926192306 91 31 7.0 17.4 0.00 0.00 0.00 20 1019.5
20220926191806 91 28 11.3 17.4 0.00 0.00 0.00 20 1019.6
20220926191306 92 358 4.3 17.4 0.00 0.00 0.00 20 1019.7
20220926190806 91 13 7.0 17.4 0.00 0.00 0.00 20 1019.7
20220926190307 91 348 11.3 17.4 0.00 0.00 0.00 20 1019.8
20220926185807 91 18 5.2 15.6 0.00 0.00 0.00 20 1019.9
20220926185306 91 29 7.8 15.6 0.00 0.00 0.00 21 1020.0
20220926184307 90 31 7.8 19.1 0.00 0.00 0.00 22 1020.2
20220926183806 90 353 13.9 19.1 0.00 0.00 0.00 21 1020.2
20220926183306 90 30 4.3 17.4 0.00 0.00 0.00 23 1020.3
20220926182806 90 28 8.7 17.4 0.00 0.00 0.00 22 1020.4
20220926182306 89 346 7.8 18.2 0.00 0.00 0.00 23 1020.4
20220926181806 89 34 8.7 18.2 0.00 0.00 0.00 23 1020.5
20220926181306 89 3 5.2 17.4 0.00 0.00 0.00 25 1020.5
20220926180806 89 49 7.0 12.2 0.00 0.00 0.00 25 1020.6
20220926180306 88 27 6.1 14.8 0.00 0.00 0.00 25 1020.7
20220926175807 88 56 6.1 14.8 0.00 0.00 0.00 26 1020.9
20220926175306 88 53 7.8 13.0 0.00 0.00 0.00 26 1021.0
20220926174806 87 30 7.8 20.9 0.00 0.00 0.00 26 1021.1
20220926174306 87 5 8.7 20.9 0.00 0.00 0.00 26 1021.2
20220926173807 87 3 7.8 17.4 0.00 0.00 0.00 26 1021.2
20220926173306 87 8 11.3 17.4 0.00 0.00 0.00 25 1021.3
20220926172806 87 357 12.2 15.6 0.00 0.00 0.00 25 1021.3
20220926172306 87 8 8.7 19.1 0.00 0.00 0.00 27 1021.3
20220926171305 87 30 8.7 15.6 0.00 0.00 0.00 26 1021.4
20220926165805 87 34 8.7 15.6 0.00 0.00 0.00 27 1021.5
20220926165306 86 11 7.8 15.6 0.00 0.00 0.00 27 1021.5
20220926164306 85 52 7.8 19.1 0.00 0.00 0.00 28 1021.7
20220926163805 84 12 9.6 19.1 0.00 0.00 0.00 29 1021.7
20220926162806 84 26 8.7 20.9 0.00 0.00 0.00 29 1021.8
20220926162305 84 356 12.2 20.9 0.00 0.00 0.00 29 1021.7
20220926161806 84 23 8.7 19.1 0.00 0.00 0.00 30 1021.8
20220926160306 84 15 12.2 18.2 0.00 0.00 0.00 29 1021.8
20220926155306 84 34 6.1 18.2 0.00 0.00 0.00 32 1021.7
20220926154806 83 53 11.3 18.2 0.00 0.00 0.00 31 1021.8
20220926154306 83 18 7.8 15.6 0.00 0.00 0.00 31 1021.8
20220926153306 83 41 8.7 14.8 0.00 0.00 0.00 32 1021.8
20220926152806 82 24 8.7 14.8 0.00 0.00 0.00 32 1021.7
20220926152306 82 35 7.8 11.3 0.00 0.00 0.00 33 1021.6
20220926151806 82 8 6.1 11.3 0.00 0.00 0.00 34 1021.6
20220926151306 81 51 2.6 12.2 0.00 0.00 0.00 35 1021.6
20220926150806 80 44 8.7 12.2 0.00 0.00 0.00 35 1021.5
20220926145805 79 356 8.7 19.1 0.00 0.00 0.00 37 1021.4
20220926144306 79 24 7.8 20.9 0.00 0.00 0.00 37 1021.1
20220926143806 78 15 12.2 20.9 0.00 0.00 0.00 37 1021.1
20220926143306 78 13 8.7 20.9 0.00 0.00 0.00 39 1021.0
20220926142806 78 26 12.2 20.9 0.00 0.00 0.00 39 1020.8
20220926142306 77 12 9.6 20.9 0.00 0.00 0.00 40 1020.8
20220926141806 77 31 11.3 18.2 0.00 0.00 0.00 40 1020.7
20220926140306 76 11 13.9 24.3 0.00 0.00 0.00 42 1020.4
20220926135306 76 4 12.2 19.1 0.00 0.00 0.00 42 1020.3
20220926134806 75 29 11.3 19.1 0.00 0.00 0.00 43 1020.3
20220926134306 75 8 12.2 19.1 0.00 0.00 0.00 43 1020.1
20220926133306 75 4 10.4 21.7 0.00 0.00 0.00 43 1020.0
20220926132305 75 10 11.3 19.1 0.00 0.00 0.00 43 1019.8
20220926131805 76 9 13.9 20.9 0.00 0.00 0.00 43 1019.8
20220926131306 76 23 9.6 22.6 0.00 0.00 0.00 43 1019.7
20220926130806 76 17 12.2 22.6 0.00 0.00 0.00 43 1019.7
20220926130306 76 15 11.3 19.1 0.00 0.00 0.00 43 1019.7
20220926125806 76 16 7.8 19.1 0.00 0.00 0.00 43 1019.6
20220926125306 76 17 9.6 19.1 0.00 0.00 0.00 43 1019.5
20220926124805 76 5 9.6 21.7 0.00 0.00 0.00 43 1019.4
20220926124306 76 25 12.2 21.7 0.00 0.00 0.00 43 1019.3
20220926123805 76 24 11.3 21.7 0.00 0.00 0.00 43 1019.3
20220926122306 77 20 11.3 22.6 0.00 0.00 0.00 44 1019.0
20220926121806 77 23 12.2 22.6 0.00 0.00 0.00 44 1019.0
20220926121305 77 15 10.4 20.9 0.00 0.00 0.00 44 1018.9
20220926115805 77 19 9.6 19.1 0.00 0.00 0.00 42 1018.8
20220926115306 77 25 10.4 17.4 0.00 0.00 0.00 42 1018.8
20220926114806 78 25 10.4 17.4 0.00 0.00 0.00 42 1018.7
20220926114306 78 30 12.2 19.1 0.00 0.00 0.00 42 1018.7
20220926113806 78 29 10.4 20.9 0.00 0.00 0.00 43 1018.7
20220926113305 78 31 11.3 20.9 0.00 0.00 0.00 43 1018.6
20220926112306 78 32 10.4 19.1 0.00 0.00 0.00 44 1018.5
20220926111806 78 17 8.7 18.2 0.00 0.00 0.00 45 1018.5
20220926111305 78 25 8.7 18.2 0.00 0.00 0.00 45 1018.4
20220926105305 78 15 9.6 17.4 0.00 0.00 0.00 47 1018.0
20220926104806 78 16 11.3 17.4 0.00 0.00 0.00 47 1018.0
20220926103806 78 23 10.4 18.2 0.00 0.00 0.00 49 1017.9
20220926103306 78 21 9.6 18.2 0.00 0.00 0.00 48 1017.8
20220926102805 78 24 8.7 18.2 0.00 0.00 0.00 48 1017.8
20220926101805 78 25 8.7 18.2 0.00 0.00 0.00 50 1017.7
20220926100805 79 4 9.6 19.1 0.00 0.00 0.00 50 1017.7
20220926100305 78 359 8.7 19.1 0.00 0.00 0.00 51 1017.7
20220926095806 78 12 8.7 19.1 0.00 0.00 0.00 53 1017.6
20220926095306 78 7 7.8 13.0 0.00 0.00 0.00 55 1017.6
20220926094805 78 357 7.0 13.0 0.00 0.00 0.00 56 1017.5
20220926094305 78 12 7.8 13.0 0.00 0.00 0.00 56 1017.4
20220926092306 79 13 5.2 13.0 0.00 0.00 0.00 57 1017.3
20220926091805 79 10 4.3 11.3 0.00 0.00 0.00 57 1017.4
20220926091306 79 12 5.2 10.4 0.00 0.00 0.00 57 1017.3
20220926090305 79 9 5.2 12.2 0.00 0.00 0.00 58 1017.3
20220926085806 78 17 6.1 12.2 0.00 0.00 0.00 58 1017.3
20220926084806 78 6 4.3 10.4 0.00 0.00 0.00 58 1017.3
20220926083805 78 6 3.5 10.4 0.00 0.00 0.00 58 1017.4
20220926083306 78 359 5.2 10.4 0.00 0.00 0.00 58 1017.4
20220926082805 79 357 4.3 6.1 0.00 0.00 0.00 58 1017.4
20220926081805 79 11 4.3 6.1 0.00 0.00 0.00 59 1017.5
20220926081305 78 358 3.5 6.1 0.00 0.00 0.00 60 1017.6
20220926080805 78 351 2.6 4.3 0.00 0.00 0.00 61 1017.7
20220926080305 78 344 0.0 1.7 0.00 0.00 0.00 60 1017.7
20220926075805 78 344 0.9 1.7 0.00 0.00 0.00 60 1017.6
20220926075306 78 344 2.6 1.7 0.00 0.00 0.00 60 1017.6
20220926074306 78 344 0.9 1.7 0.00 0.00 0.00 60 1017.4
20220926072806 77 344 0.0 1.7 0.00 0.00 0.00 61 1017.5
20220926071805 77 344 1.7 1.7 0.00 0.00 0.00 61 1017.6
20220926070805 76 344 1.7 4.3 0.00 0.00 0.00 61 1017.7
20220926070305 77 344 2.6 5.2 0.00 0.00 0.00 60 1017.6
20220926065805 77 348 2.6 5.2 0.00 0.00 0.00 60 1017.6
20220926064805 77 88 1.7 1.7 0.00 0.00 0.00 59 1017.4
20220926064305 77 104 0.9 1.7 0.00 0.00 0.00 59 1017.4
20220926063805 77 104 0.9 1.7 0.00 0.00 0.00 59 1017.3
20220926063305 77 104 0.0 0.9 0.00 0.00 0.00 59 1017.3
20220926062806 77 104 0.0 1.7 0.00 0.00 0.00 58 1017.4
20220926060805 78 104 0.9 1.7 0.00 0.00 0.00 57 1017.4
20220926060305 78 104 1.7 1.7 0.00 0.00 0.00 57 1017.4
20220926054805 78 104 0.9 1.7 0.00 0.00 0.00 57 1017.4
20220926054305 78 104 0.9 1.7 0.00 0.00 0.00 56 1017.4
20220926053805 78 105 1.7 1.7 0.00 0.00 0.00 57 1017.4
20220926052805 79 105 0.0 0.9 0.00 0.00 0.00 55 1017.4
20220926051806 79 105 0.0 1.7 0.00 0.00 0.00 54 1017.3
20220926045805 79 105 0.9 1.7 0.00 0.00 0.00 55 1017.3
20220926044806 79 105 0.0 0.9 0.00 0.00 0.00 54 1017.3
20220926044304 79 105 0.9 1.7 0.00 0.00 0.00 54 1017.3
20220926043805 79 105 0.9 1.7 0.00 0.00 0.00 54 1017.3
20220926043305 80 105 1.7 1.7 0.00 0.00 0.00 53 1017.3
20220926042805 80 105 0.9 1.7 0.00 0.00 0.00 52 1017.3
20220926042305 81 105 0.9 1.7 0.00 0.00 0.00 51 1017.2
20220926041305 81 105 0.9 1.7 0.00 0.00 0.00 51 1017.1
20220926040304 82 105 0.9 4.3 0.00 0.00 0.00 50 1017.1
20220926035805 82 105 0.9 4.3 0.00 0.00 0.00 50 1017.2
20220926035305 82 103 0.9 4.3 0.00 0.00 0.00 50 1017.2
20220926034305 82 148 0.9 4.3 0.00 0.00 0.00 49 1017.1
20220926033305 83 148 1.7 1.7 0.00 0.00 0.00 48 1017.0
20220926032805 83 148 0.9 4.3 0.00 0.00 0.00 48 1017.0
20220926032306 83 148 0.9 5.2 0.00 0.00 0.00 48 1017.0
20220926031805 83 148 2.6 5.2 0.00 0.00 0.00 48 1016.9
20220926031305 84 147 1.7 4.3 0.00 0.00 0.00 47 1016.8
20220926024804 86 101 5.2 8.7 0.00 0.00 0.00 45 1016.7
20220926024305 86 128 4.3 8.7 0.00 0.00 0.00 45 1016.6
20220926023805 86 132 4.3 8.7 0.00 0.00 0.00 44 1016.5